Location: Milton
(43.5183°N, 79.8775°W)
Time: 14:49:33
(UTC+00:00)

UNISAT 6 - Pass Details

Date: 25 March 2023
Orbit: 599 x 680 km, 97.7° (Epoch: 02 June)

Event Time Altitude Azimuth Distance (km) Brightness Sun altitude
Rises 10:31:41 0° 182° (S) 2,869 ? -8.5°
Reaches altitude 10° 10:33:55 10° 188° (S) 1,980 ? -8.1°
Maximum altitude 10:38:03 45° 262° (W) 862 ? -7.3°
Drops below altitude 10° 10:42:19 10° 335° (NNW) 2,044 ? -6.6°
Sets 10:44:39 0° 342° (NNW) 2,973 ? -6.1°
